www.pogodaiklimat.ru

Погода и климат >> Архив погоды >> Ирак >> Kut-Al-Hai


ПОГОДА в Kut-Al-Hai

  • Прогноз погоды в Kut-Al-Hai
  • Монитор погоды в Kut-Al-Hai
  • Климат города

АРХИВ ПОГОДЫ в Kut-Al-Hai

Время (UTC), дата Ветер
(напр.,м/с)
 
Видим.   Явления Облачность Т
(С)
Тd
(С)
f
(%)
Тe
(С)
Тes
(С)
Комфортность P
(гПа)
Po
(гПа)
Тmin
(С)
Tmax
(С)
R
(мм)
R24
(мм)
S
(см)
09 13.06 С 1 10 км ясно +41.0 +11.4 17 +40 +65 опасность
солнечного
удара
1000.2 1000.0
12 13.06 С 2 10 км ясно +41.6 +10.3 16 +40 +53 опасность
солнечного
удара
998.6 999.0
15 13.06 С 1 10 км ясно +40.8 +9.2 15 +39 +40 очень
жарко
997.9 998.0
18 13.06 С 2 10 км ясно +35.8 +13.2 26 +36 +36 очень
жарко
998.3 998.0 +41.7
21 13.06 С 2 10 км ясно +32.4 +12.2 29 +33 +33 жарко 998.3 998.0
00 14.06 Ю 2 10 км ясно +31.2 +11.8 30 +32 +32 жарко 998.3 998.0
06 14.06 Ю 2 10 км ясно +37.2 +11.0 21 +36 +50 очень
жарко
999.8 1000.0 +27.7
09 14.06 Ю 4 10 км ясно +39.2 +13.5 22 +39 +54 опасность
солнечного
удара
1000.5 1001.0
12 14.06 Ю 7 10 км ясно +40.3 +12.0 19 +40 +43 очень
жарко
1000.5 1001.0
15 14.06 Ю 4 10 км ясно +39.5 +10.8 18 +38 +39 очень
жарко
1000.7 1001.0
18 14.06 В 2 10 км ясно +35.4 +15.8 31 +37 +37 очень
душно
1002.0 1002.0 +40.5
21 14.06 В 2 10 км ясно +32.4 +17.2 40 +36 +36 очень
душно
1002.7 1003.0
00 15.06 В 2 10 км ясно +30.2 +17.7 47 +34 +34 очень
душно
1002.2 1002.0
03 15.06 В 2 10 км ясно +28.8 +13.8 40 +31 +32 жарко 1003.0 1003.0
06 15.06 С 3 10 км ясно +36.2 +15.3 29 +38 +49 очень
душно
1004.2 1004.0 +28.6
09 15.06 С 7 10 км ясно +39.6 +12.6 20 +39 +45 очень
жарко
1004.0 1004.0
15 15.06 С 8 10 км ясно +39.0 +11.8 20 +38 +39 очень
жарко
1003.2 1003.0
21 15.06 В 2 10 км ясно +31.2 +13.1 33 +32 +32 жарко 1004.0 1004.0
06 16.06 С 4 10 км ясно +37.8 +12.6 22 +37 +46 очень
жарко
1004.6 1005.0 +27.6
09 16.06 СЗ 5 10 км ясно +40.8 +10.7 17 +40 +51 опасность
солнечного
удара
1004.1 1004.0
12 16.06 СЗ 7 10 км ясно +41.8 +10.7 16 +41 +44 опасность
перегрева
1002.8 1003.0
15 16.06 З 2 10 км ясно +40.2 +10.7 17 +39 +40 очень
жарко
1003.1 1003.0
18 16.06 В 4 10 км ясно +35.2 +9.9 21 +34 +34 очень
жарко
1004.4 1004.0 +42.0
21 16.06 В 7 10 км ясно +33.8 +9.3 22 +33 +33 жарко 1004.4 1004.0
00 17.06 В 3 10 км ясно +29.8 +10.6 30 +30 +30 жарко 1004.1 1004.0
06 17.06 СЗ 6 10 км ясно +38.0 +9.4 18 +36 +42 очень
жарко
1004.4 1004.0 +28.5
09 17.06 С 8 7000 м пыльный позёмок ясно +42.0 +7.3 12 +39 +43 очень
жарко
1003.8 1004.0
12 17.06 С 10 7000 м пыльный позёмок ясно +43.2 +7.3 12 +41 +42 опасность
перегрева
1002.7 1003.0
15 17.06 С 7 10 км ясно +41.8 +7.5 13 +40 +40 очень
жарко
1002.2 1002.0
18 17.06 С 4 10 км ясно +36.7 +11.5 22 +36 +36 очень
жарко
1003.1 1003.0 +43.3
21 17.06 н/о +33.1 +14.4 32 +43 +11 опасность
перегрева
1002.4 1002.7
00 18.06 В 3 10 км ясно +31.1 +11.9 31 +32 +32 жарко 1001.7 1002.0
03 18.06 С 3 10 км ясно +30.6 +11.1 30 +31 +32 жарко 1002.3 1002.0
06 18.06 С 2 10 км ясно +38.6 +12.4 21 +38 +51 опасность
солнечного
удара
1002.3 1002.0 +30.4
09 18.06 С 4 10 км ясно +43.7 +11.8 15 +43 +57 опасность
перегрева
1002.1 1002.0
12 18.06 С 7 10 км ясно +44.0 +10.3 14 +43 +46 опасность
перегрева
1001.4 1001.0
15 18.06 С 4 10 км ясно +41.3 +9.9 15 +40 +40 очень
жарко
1001.4 1001.0
18 18.06 В 4 10 км ясно +35.6 +13.2 26 +36 +36 очень
жарко
1003.1 1003.0 +44.1
21 18.06 В 4 10 км ясно +32.3 +10.8 27 +32 +32 жарко 1013.4 1013.0
00 19.06 СВ 4 10 км ясно +30.1 +9.8 28 +30 +30 жарко 1003.7 1004.0
03 19.06 СВ 3 10 км ясно +29.1 +9.2 29 +29 +30 жарко 1003.7 1004.0
06 19.06 С 7 10 км ясно +37.3 +9.8 19 +36 +40 очень
жарко
1005.4 1005.0 +28.9
12 19.06 С 6 10 км ясно +41.1 +7.6 13 +39 +44 очень
жарко
1004.7 1005.0
18 19.06 В 4 10 км ясно +35.8 +11.2 23 +35 +35 очень
жарко
1005.5 1006.0 +41.4
00 20.06 В 4 10 км ясно +29.1 +11.7 34 +30 +30 жарко 1005.3 1005.0
03 20.06 В 3 10 км ясно +29.4 +11.4 33 +30 +31 жарко 1005.4 1005.0
06 20.06 С 4 10 км ясно +38.6 +9.6 17 +37 +46 очень
жарко
1006.5 1007.0 +28.8

 

Местоположение метеостанции Kut-Al-Hai (Ирак): широта 32.17 долгота 46.05 высота над уровнем моря 15 м.

В архиве по умолчанию представлена погода в Kut-Al-Hai за последнюю неделю. Архивные данные за месяц целиком и за предыдущие месяцы, начиная с января 2011 года, Вы можете получить, выбрав интересующий диапазон дат из раскрывающегося списка и нажав кнопку "Ввод!".


*Определитесь, кто Вы:
робот инопланетянин человек

Внимание! Время в таблицах - всемирное. Для получения местного времени необходимо прибавить поправку, которая в Kut-Al-Hai равна 3 ч.

Смотрите также архив погоды в соседних городах и на ближайших метеорологических станциях:

Погода в Ubaydah Bin Al Jarrah (Ирак) (45 км)
Погода в Rifai (Ирак) (50 км)
Погода в Ali Al-Gharbi (Ирак) (71 км)
Погода в Diwaniya (Ирак) (103 км)
Погода в Badrah (Ирак) (104 км)
Погода в Amarah (Ирак) (111 км)
Погода в Samawah (Ирак) (122 км)
Погода в Nasiriya (Ирак) (122 км)
Погода в Azizyah (Ирак) (124 км)
Погода в Hella (Ирак) (154 км)

Пояснения к столбцам:

Ветер - указаны скорость ветра в м/с - средняя за 10 мин, порывы в срок и между сроками (в фигурных скобках) и направление, откуда дует ветер: С - северный, СВ - северо-восточный, В - восточный, ЮВ - юго-восточный, Ю - южный, ЮЗ - юго-западный, З - западный, СЗ - северо-западный.
Видимость - горизонтальная дальность видимости в метрах или километрах. При видимости от 1 до 10 км при отсутствии осадков обычно наблюдается дымка, при ухудшении видимости до 1 км и менее - туман. В сухую погоду видимость может ухудшаться дымом, пылью или мглою.
Явления - указаны атмосферные явления, наблюдавшиеся в срок или в последний час перед сроком; фигурными скобками обозначены явления, наблюдавшиеся между сроками (за 1-3 часа до срока); квадратными скобками обозначены град или гололедные отложения с указанием их диаметра в мм.
Облачность - указаны через наклонную черту общая и нижняя облачность в баллах и высота нижней границы облаков в метрах; квадратными скобками обозначены формы облаков: Ci - перистые, Cs - перисто-слоистые, Cc - перисто-кучевые, Ac - высококучевые, As - высокослоистые, Sc - слоисто-кучевые, Ns - слоисто-дождевые, Cu - кучевые, Cb - кучево-дождевые. Подробнее классификацию облаков см. в Атласе облаков (PDF).
T - Температура воздуха - температура, измеренная на высоте 2 м над землей.
Td - Температура точки росы - температура, при понижении до которой содержащийся в воздухе водяной пар достигнет насыщения.
f - Относительная влажность воздуха - влажноcть воздуха, измеренная на высоте 2 м над землей.
Te - Эффективная температура - температура, которую ощущает одетый по сезону человек в тени. Характеристика душности погоды. При расчете учитывается влияние влажности воздуха и скорости ветра на теплоощущения человека.
Tes - Эффективная температура на солнце - температура, которую ощущает человек, с поправкой на солнечный нагрев. Характеристика знойности погоды. Зависит от высоты солнца над горизонтом, облачности и скорости ветра. Ночью, в пасмурную погоду, а также при ветре 12 м/с и более поправка равна нулю.
P - Атмосферное давление - приведенное к уровню моря атмосферное давление.
Po - Атмосферное давление - измеренное на уровне метеостанции атмосферное давление.
Tmin - Минимальная температура - минимум температуры воздуха на высоте 2 м над землей.
Tmax - Максимальная температура - максимум температуры воздуха на высоте 2 м над землей.
R - Количество осадков - Количество выпавших осадков за период времени, мм. При наведении курсора мыши на число - период времени, за который выпало указанное количество осадков.
R24 - Количество осадков - Количество выпавших осадков за 24 часа, мм.
S - Снежный покров - Высота снежного покрова, см. При наведении курсора мыши на число - состояние снежного покрова и степень покрытия местности в баллах.